FENGYUN 1C DEB, 32224

Orbit data source: Space-Track

FENGYUN 1C DEB, 32224 is space debris in SSO originally from a launch on Mon, 10 May 1999 UTC launched from the Taiyaun Space Center, China (TSC). Fengyun 1C debris stems from the Chinese weather satellite Fengyun-1C, which was intentionally destroyed by a Chinese anti-satellite missile in 2007. This event dramatically increased the amount of space debris, with thousands of trackable fragments posing hazards to satellites and human spaceflight. The Fengyun 1C debris cloud has become a focal point in discussions about space sustainability and the need for international regulations to prevent the creation of new debris.

Loading next visibility...
Identifier
32224, 1999-025CVW
Orbit
SSO
Country
Flag of CNCN / PRC
Related business
Manufacturer
Unknown
Mission
Spacecraft
Bus & Motor
Unknown
Mass
Unknown
Launch date (UTC)
1999-05-10 (27 years ago)
Launch vehicle
Unknown
Launch site
Taiyaun Space Center, China (TSC)
Object type
Payload
Rocket body
Debris
Shape & HBR
Unknown shape, 0.1 m
Radar Cross Section
Small (<0.1 m²)

Expand to show TLE details & history
Last TLE update: 19 hours ago

TLE from 19 hours ago
0 FENGYUN 1C DEB
1 32224U 99025CVW 26122.64351548  .00000877  00000-0  31866-3 0  9996
2 32224  99.0038  84.2863 0076293  15.3554 344.9920 14.34314254977437
Epoch: 2026-05-02T15:26Z
TLE epoch observation values (Epoch: 2026-05-02T15:26:39.737Z)
Latitude
0.00001°
Longitude
-7.93774°
Altitude
727.559 km
Speed
7.519 km/s
True Right ascension
05h 37m 08s
True Declination
0° 00' 00"
Sunlit
Object was in daylight at epoch
Visualization orbit readout
Latitude
Unknown
Longitude
Unknown
Altitude
Unknown
Speed
Unknown
Apparent Right ascension
Unknown
Apparent Declination
Unknown
Sunlit
N/A
Visualization observer readout
Local Sidereal Time
17:59:31
Azimuth
Unknown
Elevation
Unknown
Doppler factor
Unknown
Orbital elements
Apogee altitude
829.069 km
Perigee altitude
719.93 km
Semi-major axis
7,152.637 km
Eccentricity
0.00763
Inclination
99.0038°
RAAN
84.2863°
Arg. of periapsis
15.3554°
True anomaly
344.76351°
Mean anomaly
344.992°
Eccentric anomaly
344.87796°
Mean motion
3.58793 °/min
Orbital period
100.34 mins
BSTAR
0.00031866
Loading maneuver chart data...
Computing Atmospheric mass density...

Documentation

Showing up to 5 results
|